Weather History for KGRD - February, 2013

Change the Weather History Date:

Thursday, February 21, 2013

  Actual Average (KAND) Record (KAND)
Temperature  
Mean Temperature 46 °F -  
Max Temperature 62 °F 59 °F 72 °F (1976)
Min Temperature 30 °F 36 °F 20 °F (1958)
Degree Days  
Heating Degree Days 19    
Moisture  
Dew Point 21 °F    
Average Humidity 41    
Maximum Humidity 76    
Minimum Humidity 20    
Precipitation  
Precipitation 0.00 in - - ()
Sea Level Pressure  
Sea Level Pressure 30.15 in    
Wind  
Wind Speed 3 mph (NE)    
Max Wind Speed 8 mph    
Max Gust Speed -    
Visibility 10 miles    
Events      
Averages and records for this station are not official NWS values.
T = Trace of Precipitation, MM = Missing Value Source: NWS Daily Summary

Daily Weather History Graph

Daily Weather History Graph

Search for Another Location

Airport or City:

Trip Planner

Search our weather history database for the weather conditions in past years. The results will help you decide how hot, cold, wet, or windy it might be!

Date:

Astronomy

Feb. 21, 2013 Rise Set
Actual Time 7:06 AM EST 6:18 PM EST
Civil Twilight 6:41 AM EST 6:43 PM EST
Nautical Twilight 6:12 AM EST 7:12 PM EST
Astronomical Twilight 5:43 AM EST 7:41 PM EST
Moon 2:38 PM EST (2/21) 4:03 AM EST (2/21)
Length of Visible Light 12h 02m
Length of Day
11h 11m
Waxing Gibbous, 83% of the Moon is Illuminated
Feb 21
Waxing Gibbous
Feb 25
Full
Mar 4
Last Quarter
Mar 11
New
Mar 19
First Quarter

Hourly Weather History & Observations

Time (EST) Temp. Windchill Dew Point Humidity Pressure Visibility Wind Dir Wind Speed Gust Speed Precip Events Conditions
12:56 AM 33.1 °F - 26.1 °F 75% 30.12 in 10.0 mi Calm Calm - N/A   Clear
1:56 AM 30.9 °F - 24.1 °F 76% 30.13 in 10.0 mi Calm Calm - N/A   Partly Cloudy
2:56 AM 32.0 °F - 24.1 °F 73% 30.13 in 10.0 mi Calm Calm - N/A   Mostly Cloudy
3:56 AM 34.0 °F 28.8 °F 19.0 °F 54% 30.13 in 10.0 mi NNE 5.8 mph - N/A   Partly Cloudy
4:56 AM 34.0 °F 29.8 °F 19.0 °F 54% 30.15 in 10.0 mi NNE 4.6 mph - N/A   Clear
5:56 AM 32.0 °F 28.7 °F 18.0 °F 56% 30.17 in 10.0 mi NE 3.5 mph - N/A   Clear
6:56 AM 32.0 °F 27.5 °F 18.0 °F 56% 30.19 in 10.0 mi NNE 4.6 mph - N/A   Clear
7:56 AM 35.1 °F 31.0 °F 18.0 °F 50% 30.21 in 10.0 mi NE 4.6 mph - N/A   Clear
8:56 AM 39.9 °F 34.5 °F 17.1 °F 40% 30.23 in 10.0 mi ENE 8.1 mph - N/A   Clear
9:56 AM 44.1 °F 40.8 °F 15.1 °F 31% 30.23 in 10.0 mi ENE 5.8 mph - N/A   Clear
10:56 AM 46.9 °F - 16.0 °F 29% 30.23 in 10.0 mi Variable 4.6 mph - N/A   Clear
11:56 AM 51.1 °F - 18.0 °F 27% 30.21 in 10.0 mi Calm Calm - N/A   Clear
1:56 PM 57.0 °F - 19.9 °F 24% 30.12 in 10.0 mi Calm Calm - N/A   Clear
2:56 PM 59.0 °F - 19.9 °F 22% 30.11 in 10.0 mi East 3.5 mph - N/A   Clear
3:56 PM 62.1 °F - 19.9 °F 20% 30.10 in 10.0 mi Calm Calm - N/A   Clear
4:56 PM 61.0 °F - 21.0 °F 21% 30.09 in 10.0 mi SSE 4.6 mph - N/A   Clear
5:56 PM 57.9 °F - 23.0 °F 26% 30.09 in 10.0 mi Calm Calm - N/A   Clear
6:56 PM 53.1 °F - 25.0 °F 34% 30.09 in 10.0 mi Calm Calm - N/A   Clear
7:56 PM 53.1 °F - 25.0 °F 34% 30.09 in 10.0 mi East 3.5 mph - N/A   Clear
8:56 PM 52.0 °F - 26.1 °F 37% 30.15 in 10.0 mi North 3.5 mph - N/A   Clear
9:56 PM 51.1 °F - 25.0 °F 36% 30.14 in 10.0 mi NE 4.6 mph - N/A   Mostly Cloudy
10:56 PM 52.0 °F - 26.1 °F 37% 30.22 in 10.0 mi WNW 5.8 mph - N/A   Overcast
11:56 PM 51.1 °F - 27.0 °F 39% 30.17 in 10.0 mi East 5.8 mph - N/A   Overcast